period_start,C,m1,H,J0,J1,J2,J3,J4,J5,JA,JB,JC,JD,JJ,JK,JN,#
2016-01-07 00:01:02,0.03,1.16,0.00,17.15,20.55,24.48,14.95,52.63,1018.57,2059.03,3001.07,2924.01,3183.49,600.02,609.38,26.37,0000 0000 0000 0000 000000
2016-01-07 00:06:03,0.02,1.17,0.00,17.14,20.53,24.44,14.95,52.41,1018.57,2059.05,3000.18,2923.98,3183.02,600.06,609.35,26.42,0000 0000 0000 0000 000000
2016-01-07 00:11:04,0.08,1.17,0.00,17.13,20.51,24.38,14.96,52.42,1018.58,2059.28,2999.32,2923.50,3182.47,600.10,609.33,26.47,0000 0000 0000 0000 000000
2016-01-07 00:16:06,0.06,1.17,0.00,17.11,20.49,24.40,14.90,52.30,1018.72,2059.75,2998.46,2923.06,3182.01,599.83,609.10,26.52,0000 0000 0000 0000 000000
2016-01-07 00:21:07,0.03,1.17,0.00,17.09,20.47,24.40,15.01,52.23,1018.73,2059.83,2997.61,2922.99,3181.57,600.08,609.52,26.57,0000 0000 0000 0000 000000
2016-01-07 00:26:08,0.04,1.18,0.00,17.07,20.46,24.37,15.02,52.37,1018.79,2059.94,2996.70,2922.65,3181.01,600.30,609.81,26.62,0000 0000 0000 0000 000000
2016-01-07 00:31:10,0.04,1.18,0.00,17.06,20.44,24.36,14.90,52.26,1019.00,2059.97,2995.81,2922.04,3180.51,599.84,609.57,26.67,0000 0000 0000 0000 000000
2016-01-07 00:36:11,0.02,1.18,0.00,17.03,20.42,24.37,14.96,52.28,1018.97,2059.98,2994.92,2921.98,3180.01,600.13,610.00,26.72,0000 0000 0000 0000 000000
2016-01-07 00:41:12,0.03,1.18,0.00,17.02,20.40,24.35,14.93,52.42,1018.94,2059.98,2994.04,2921.67,3179.63,600.16,609.87,26.77,0000 0000 0000 0000 000000
2016-01-07 00:46:13,0.04,1.18,0.00,17.02,20.39,24.30,15.02,52.31,1019.05,2059.98,2993.12,2921.04,3179.02,600.29,609.92,26.82,0000 0000 0000 0000 000000
2016-01-07 00:51:15,0.02,1.19,0.00,17.00,20.37,24.36,14.98,52.41,1019.06,2059.99,2992.22,2920.99,3178.63,600.25,610.09,26.87,0000 0000 0000 0000 000000
2016-01-07 00:56:16,0.04,1.19,0.00,16.99,20.35,24.36,15.01,52.62,1019.06,2059.99,2991.39,2920.59,3178.03,600.10,610.01,26.92,0000 0000 0000 0000 000000
2016-01-07 01:01:18,0.03,1.19,0.00,16.97,20.33,24.30,14.98,52.52,1019.07,2059.99,2990.41,2920.03,3177.59,600.19,610.06,26.97,0000 0000 0000 0000 000000
2016-01-07 01:06:19,0.02,1.19,0.00,16.97,20.32,24.29,14.96,52.52,1019.08,2060.03,2989.55,2919.99,3177.02,600.18,610.07,27.02,0000 0000 0000 0000 000000
2016-01-07 01:11:20,0.04,1.19,0.00,16.96,20.30,24.29,14.98,52.43,1019.08,2060.01,2988.60,2919.65,3176.65,600.08,609.97,27.07,0000 0000 0000 0000 000000
2016-01-07 01:16:21,0.03,1.20,0.00,16.94,20.29,24.28,14.98,52.56,1019.09,2060.05,2987.77,2919.06,3176.04,600.40,610.37,27.12,0000 0000 0000 0000 000000
2016-01-07 01:21:23,0.02,1.20,0.00,16.92,20.27,24.24,14.95,52.40,1019.12,2060.07,2986.90,2918.96,3175.71,600.25,610.29,27.17,0000 0000 0000 0000 000000
2016-01-07 01:26:24,0.06,1.20,0.00,16.91,20.26,24.25,14.99,52.52,1019.34,2060.16,2986.03,2918.24,3175.03,600.06,610.16,27.22,0000 0000 0000 0000 000000
2016-01-07 01:31:25,0.04,1.20,0.00,16.89,20.24,24.25,14.97,52.33,1019.43,2060.42,2985.12,2918.01,3174.69,600.02,610.35,27.27,0000 0000 0000 0000 000000
2016-01-07 01:36:27,0.02,1.20,0.00,16.90,20.23,24.26,14.94,52.35,1019.34,2060.39,2984.22,2917.89,3174.03,599.88,609.99,27.32,0000 0000 0000 0000 000000
2016-01-07 01:41:28,0.08,1.21,0.00,16.89,20.22,24.23,14.89,52.28,1019.48,2060.56,2983.30,2917.17,3173.55,599.82,610.12,27.37,0000 0000 0000 0000 000000
2016-01-07 01:46:29,0.04,1.21,0.00,16.88,20.21,24.22,14.93,52.25,1019.52,2060.87,2982.44,2917.00,3173.03,599.99,610.34,27.42,0000 0000 0000 0000 000000
2016-01-07 01:51:30,0.04,1.21,0.00,16.88,20.19,24.22,14.90,52.32,1019.55,2060.92,2981.45,2916.85,3172.71,599.89,610.32,27.47,0000 0000 0000 0000 000000
2016-01-07 01:56:31,0.05,1.21,0.00,16.87,20.19,24.17,14.97,52.27,1019.55,2060.97,2980.46,2916.12,3172.03,599.74,610.11,27.52,0000 0000 0000 0000 000000
2016-01-07 02:01:33,0.03,1.22,0.00,16.87,20.17,24.13,15.01,52.26,1019.55,2060.97,2979.43,2915.96,3171.37,600.01,610.41,27.57,0000 0000 0000 0000 000000
2016-01-07 02:06:35,0.04,1.22,0.00,16.86,20.17,24.13,14.91,52.27,1019.55,2060.97,2978.52,2915.28,3170.97,599.70,610.09,27.62,0000 0000 0000 0000 000000
2016-01-07 02:11:36,0.03,1.22,0.00,16.86,20.17,24.14,14.94,52.37,1019.55,2060.98,2977.58,2914.97,3170.29,600.19,610.66,27.67,0000 0000 0000 0000 000000
2016-01-07 02:16:37,0.04,1.22,0.00,16.86,20.15,24.10,14.87,52.37,1019.56,2060.99,2976.54,2914.41,3169.84,599.61,610.04,27.72,0000 0000 0000 0000 000000
2016-01-07 02:21:38,0.03,1.22,0.00,16.85,20.14,24.12,14.99,52.27,1019.62,2060.99,2975.58,2913.99,3169.04,600.20,610.67,27.77,0000 0000 0000 0000 000000
2016-01-07 02:26:39,0.06,1.23,0.00,16.85,20.14,24.15,14.95,52.25,1019.77,2060.99,2974.36,2913.22,3168.20,599.91,610.47,27.82,0000 0000 0000 0000 000000
2016-01-07 02:31:41,0.03,1.23,0.00,16.84,20.13,24.11,14.99,52.38,1019.82,2060.99,2973.29,2912.85,3167.81,600.25,610.88,27.87,0000 0000 0000 0000 000000
2016-01-07 02:36:42,0.06,1.23,0.00,16.84,20.12,24.14,14.93,52.41,1019.91,2060.99,2972.26,2912.04,3166.77,600.02,610.67,27.92,0000 0000 0000 0000 000000
2016-01-07 02:41:43,0.03,1.23,0.00,16.84,20.12,24.09,15.03,52.58,1020.01,2060.99,2971.19,2911.76,3166.02,600.30,611.04,27.97,0000 0000 0000 0000 000000
2016-01-07 02:46:44,0.06,1.24,0.00,16.83,20.10,24.07,14.98,52.56,1020.03,2061.00,2970.25,2910.93,3165.46,600.29,611.11,28.02,0000 0000 0000 0000 000000
2016-01-07 02:51:45,0.04,1.24,0.00,16.83,20.09,24.10,14.97,52.34,1020.04,2061.00,2969.09,2910.04,3164.90,599.88,610.66,28.07,0000 0000 0000 0000 000000
2016-01-07 02:56:47,0.05,1.24,0.00,16.83,20.09,24.11,15.03,52.46,1020.04,2061.00,2968.35,2909.72,3164.12,600.06,610.80,28.12,0000 0000 0000 0000 000000
2016-01-07 03:01:48,0.04,1.24,0.00,16.83,20.09,24.10,15.02,52.45,1020.04,2061.00,2967.38,2909.02,3163.51,600.16,610.95,28.17,0000 0000 0000 0000 000000
2016-01-07 03:06:49,0.04,1.25,0.00,16.82,20.07,24.10,14.99,52.58,1020.05,2061.00,2966.37,2908.67,3162.92,600.06,610.86,28.22,0000 0000 0000 0000 000000
2016-01-07 03:11:50,0.04,1.25,0.00,16.82,20.07,24.06,15.05,52.44,1020.11,2061.00,2965.00,2908.00,3162.07,600.20,610.97,28.27,0000 0000 0000 0000 000000
2016-01-07 03:16:52,0.05,1.25,0.00,16.81,20.07,23.97,15.05,52.43,1020.05,2061.01,2964.03,2907.55,3161.65,600.04,610.91,28.32,0000 0000 0000 0000 000000
2016-01-07 03:21:53,0.05,1.25,0.00,16.79,20.05,24.06,15.06,52.48,1020.04,2061.01,2962.93,2906.78,3160.76,600.09,610.95,28.37,0000 0000 0000 0000 000000
2016-01-07 03:26:55,0.04,1.26,0.00,16.79,20.04,24.02,14.88,52.38,1020.06,2061.01,2961.71,2906.04,3159.99,599.61,610.29,28.42,0000 0000 0000 0000 000000
2016-01-07 03:31:56,0.05,1.26,0.00,16.78,20.04,24.02,14.89,52.34,1020.35,2061.03,2960.70,2905.65,3159.24,599.89,611.03,28.47,0000 0000 0000 0000 000000
2016-01-07 03:36:57,0.02,1.26,0.00,16.79,20.04,24.05,14.99,52.38,1020.51,2061.04,2959.88,2905.07,3158.83,600.00,611.18,28.52,0000 0000 0000 0000 000000
2016-01-07 03:41:58,0.04,1.26,0.00,16.78,20.03,24.06,15.04,52.40,1020.51,2061.05,2958.86,2904.84,3158.06,600.13,611.28,28.57,0000 0000 0000 0000 000000
2016-01-07 03:46:59,0.05,1.27,0.00,16.79,20.02,24.02,14.94,52.41,1020.52,2061.06,2957.71,2904.07,3157.20,599.89,611.05,28.62,0000 0000 0000 0000 000000
2016-01-07 03:52:01,0.05,1.27,0.00,16.77,20.02,24.02,14.93,52.42,1020.52,2061.06,2956.72,2903.53,3156.66,600.13,611.38,28.67,0000 0000 0000 0000 000000
2016-01-07 03:57:02,0.03,1.27,0.00,16.75,20.01,24.01,14.94,52.29,1020.53,2061.06,2955.77,2903.01,3155.99,599.69,610.89,28.72,0000 0000 0000 0000 000000
2016-01-07 04:02:03,0.04,1.27,0.00,16.75,19.99,24.04,14.99,52.48,1020.55,2061.15,2954.90,2902.77,3155.29,600.01,611.26,28.77,0000 0000 0000 0000 000000
2016-01-07 04:07:05,0.03,1.28,0.00,16.74,19.99,23.98,15.04,52.42,1020.85,2061.15,2953.93,2902.06,3154.95,600.13,611.54,28.82,0000 0000 0000 0000 000000
2016-01-07 04:12:06,0.04,1.28,0.00,16.74,19.99,23.96,14.97,52.32,1020.96,2061.19,2952.94,2901.92,3154.18,599.88,611.45,28.87,0000 0000 0000 0000 000000
2016-01-07 04:17:07,0.05,1.28,0.00,16.73,19.98,23.96,14.98,52.46,1021.01,2061.33,2951.98,2901.16,3153.75,600.04,611.73,28.92,0000 0000 0000 0000 000000
2016-01-07 04:22:09,0.03,1.28,0.00,16.72,19.97,24.01,14.91,52.55,1021.01,2061.40,2951.06,2900.99,3153.03,599.69,611.29,28.97,0000 0000 0000 0000 000000
2016-01-07 04:27:10,0.07,1.28,0.00,16.72,19.97,24.03,14.98,52.42,1021.03,2061.57,2950.15,2900.50,3152.63,599.86,611.50,29.02,0000 0000 0000 0000 000000
2016-01-07 04:32:12,0.04,1.29,0.00,16.71,19.96,23.93,14.99,52.56,1021.20,2061.81,2949.25,2900.03,3152.03,600.22,611.83,29.07,0000 0000 0000 0000 000000
2016-01-07 04:37:13,0.05,1.29,0.00,16.70,19.94,23.94,15.03,52.52,1021.12,2061.84,2948.25,2899.82,3151.41,599.78,611.46,29.12,0000 0000 0000 0000 000000
2016-01-07 04:42:14,0.04,1.29,0.00,16.69,19.94,23.97,14.90,52.42,1021.31,2061.95,2947.42,2899.11,3150.99,599.60,611.36,29.17,0000 0000 0000 0000 000000
2016-01-07 04:47:15,0.04,1.29,0.00,16.67,19.94,23.95,14.98,52.39,1021.49,2061.96,2946.44,2898.84,3150.28,599.81,611.82,29.22,0000 0000 0000 0000 000000
2016-01-07 04:52:16,0.04,1.30,0.00,16.68,19.92,23.95,15.00,52.41,1021.50,2061.96,2945.55,2898.08,3149.85,599.76,611.66,29.27,0000 0000 0000 0000 000000
2016-01-07 04:57:17,0.03,1.30,0.00,16.67,19.92,23.92,14.95,52.50,1021.50,2061.98,2944.60,2897.98,3149.07,600.16,612.18,29.32,0000 0000 0000 0000 000000
2016-01-07 05:02:19,0.03,1.30,0.00,16.66,19.91,23.92,14.96,52.70,1021.50,2061.98,2943.84,2897.52,3148.83,599.94,611.96,29.37,0000 0000 0000 0000 000000
2016-01-07 05:07:20,0.03,1.30,0.00,16.66,19.89,23.95,14.95,52.65,1021.50,2061.97,2942.90,2897.01,3148.06,600.00,612.06,29.42,0000 0000 0000 0000 000000
2016-01-07 05:12:22,0.03,1.30,0.00,16.65,19.89,23.93,15.03,52.48,1021.50,2061.98,2941.99,2896.89,3147.72,599.91,611.91,29.47,0000 0000 0000 0000 000000
2016-01-07 05:17:23,0.04,1.31,0.00,16.60,19.88,23.92,15.03,52.45,1021.53,2061.98,2941.03,2896.16,3147.02,600.21,612.41,29.52,0000 0000 0000 0000 000000
2016-01-07 05:22:25,0.03,1.31,0.00,16.60,19.87,23.70,15.02,52.44,1021.57,2061.98,2940.09,2896.00,3146.53,599.98,612.19,29.57,0000 0000 0000 0000 000000
2016-01-07 05:27:26,0.03,1.31,0.00,16.67,19.87,23.57,15.07,52.46,1021.60,2061.99,2939.20,2895.76,3146.01,600.02,612.08,29.62,0000 0000 0000 0000 000000
2016-01-07 05:32:27,0.05,1.31,0.00,16.72,19.86,23.67,14.98,52.58,1021.84,2061.99,2938.19,2895.06,3145.46,600.02,612.11,29.67,0000 0000 0000 0000 000000
2016-01-07 05:37:29,0.03,1.31,0.00,16.74,19.85,23.72,15.01,52.67,1021.76,2061.99,2937.14,2894.78,3144.84,600.49,612.46,29.72,0000 0000 0000 0000 000000
2016-01-07 05:42:30,0.04,1.32,0.00,16.79,19.86,23.80,14.98,52.47,1021.84,2061.99,2936.13,2894.04,3144.06,599.92,611.83,29.77,0000 0000 0000 0000 000000
2016-01-07 05:47:31,0.03,1.32,0.00,16.87,19.87,23.87,15.02,52.56,1021.99,2061.99,2935.20,2893.88,3143.49,599.94,611.80,29.83,0000 0000 0000 0000 000000
2016-01-07 05:52:33,0.04,1.32,0.00,16.90,19.89,23.97,14.95,52.45,1022.00,2061.99,2934.15,2893.08,3142.94,599.91,611.71,29.88,0000 0000 0000 0000 000000
2016-01-07 05:57:34,0.05,1.32,0.00,16.94,19.92,24.04,15.02,52.45,1022.12,2061.98,2933.05,2892.64,3142.12,599.93,611.53,29.93,0000 0000 0000 0000 000000
2016-01-07 06:02:35,0.04,1.33,0.00,16.89,19.95,24.12,15.03,52.43,1022.41,2061.93,2932.00,2892.02,3141.41,600.01,611.79,29.98,0000 0000 0000 0000 000000
2016-01-07 06:07:37,0.02,1.33,0.00,16.86,19.98,24.20,15.04,52.55,1022.47,2061.65,2930.84,2891.59,3140.74,600.28,612.37,30.03,0000 0000 0000 0000 000000
2016-01-07 06:12:38,0.00,1.33,0.00,16.89,20.03,24.30,15.05,52.57,1022.48,2061.34,2929.77,2891.00,3140.01,600.10,612.20,30.08,0000 0000 0000 0000 000000
2016-01-07 06:17:39,0.04,1.33,0.00,16.94,20.07,24.39,14.86,52.38,1022.48,2061.06,2928.74,2890.33,3139.20,599.40,611.47,30.13,0000 0000 0000 0000 000000
2016-01-07 06:22:40,0.05,1.33,0.00,16.98,20.12,24.44,15.05,52.56,1022.48,2061.01,2927.59,2889.73,3138.30,600.13,612.12,30.18,0000 0000 0000 0000 000000
2016-01-07 06:27:42,0.05,1.34,0.00,17.01,20.17,24.51,15.11,52.58,1022.51,2061.00,2926.35,2888.95,3137.38,600.40,612.34,30.23,0000 0000 0000 0000 000000
2016-01-07 06:32:43,0.06,1.34,0.00,17.05,20.22,24.56,14.97,52.41,1022.65,2060.99,2925.05,2888.10,3136.53,599.99,611.89,30.28,0000 0000 0000 0000 000000
2016-01-07 06:37:44,0.04,1.34,0.00,17.07,20.27,24.60,15.06,52.50,1022.89,2060.80,2923.75,2887.28,3135.56,600.42,612.44,30.33,0000 0000 0000 0000 000000
2016-01-07 06:42:45,0.00,1.34,0.00,17.09,20.33,24.65,14.95,52.54,1022.96,2060.15,2922.48,2886.43,3134.67,599.95,611.83,30.38,0000 0000 0000 0000 000000
2016-01-07 06:47:47,0.04,1.34,0.00,17.12,20.39,24.68,15.04,52.66,1022.96,2060.02,2921.36,2885.76,3133.83,599.88,611.81,30.43,0000 0000 0000 0000 000000
2016-01-07 06:52:48,0.04,1.35,0.00,17.13,20.44,24.74,15.04,52.58,1022.96,2060.00,2920.11,2885.01,3132.89,600.40,612.28,30.48,0000 0000 0000 0000 000000
2016-01-07 06:57:49,0.06,1.35,0.00,17.14,20.50,24.79,15.08,52.67,1022.97,2059.99,2918.87,2884.15,3132.02,600.04,611.88,30.53,0000 0000 0000 0000 000000
2016-01-07 07:02:50,0.04,1.35,0.00,17.17,20.56,24.84,15.02,52.75,1023.19,2059.76,2917.62,2883.37,3131.02,599.92,611.83,30.58,0000 0000 0000 0000 000000
2016-01-07 07:07:51,0.01,1.35,0.00,17.19,20.61,24.86,15.01,52.83,1023.33,2059.14,2916.38,2882.61,3129.95,599.98,611.83,30.63,0000 0000 0000 0000 000000
2016-01-07 07:12:53,0.06,1.35,0.00,17.22,20.66,24.91,14.99,52.61,1023.43,2059.02,2914.98,2881.61,3128.95,599.79,611.79,30.68,0000 0000 0000 0000 000000
2016-01-07 07:17:54,0.05,1.36,0.00,17.24,20.72,24.90,15.03,52.86,1023.44,2058.99,2913.75,2880.85,3127.99,600.32,612.35,30.73,0000 0000 0000 0000 000000
2016-01-07 07:22:55,0.05,1.36,0.00,17.24,20.77,24.96,14.96,52.78,1023.44,2058.91,2912.51,2880.04,3127.04,599.86,611.84,30.78,0000 0000 0000 0000 000000
2016-01-07 07:27:57,0.01,1.36,0.00,17.24,20.82,24.98,15.00,52.73,1023.45,2058.45,2911.35,2879.24,3126.09,599.73,611.69,30.83,0000 0000 0000 0000 000000
2016-01-07 07:32:58,0.02,1.36,0.00,17.26,20.87,25.00,15.00,52.52,1023.46,2058.07,2910.13,2878.87,3125.17,600.11,612.03,30.88,0000 0000 0000 0000 000000
2016-01-07 07:37:59,0.06,1.37,0.00,17.26,20.92,25.00,14.96,52.59,1023.48,2058.01,2908.97,2878.06,3124.37,599.74,611.65,30.93,0000 0000 0000 0000 000000
2016-01-07 07:43:01,0.06,1.37,0.00,17.29,20.97,25.03,15.03,52.60,1023.79,2057.98,2907.78,2877.30,3123.41,600.20,612.28,30.98,0000 0000 0000 0000 000000
2016-01-07 07:48:02,0.05,1.37,0.00,17.30,21.02,25.05,14.97,52.55,1023.94,2057.97,2906.63,2876.71,3122.57,599.69,611.83,31.03,0000 0000 0000 0000 000000
2016-01-07 07:53:04,-0.00,1.37,0.00,17.31,21.06,25.07,14.94,52.49,1023.94,2057.52,2905.37,2875.83,3121.53,599.60,611.61,31.08,0000 0000 0000 0000 000000
2016-01-07 07:58:05,0.02,1.37,0.00,17.32,21.10,25.08,15.13,52.59,1023.98,2057.07,2904.19,2875.04,3120.80,600.10,612.23,31.13,0000 0000 0000 0000 000000
2016-01-07 08:03:06,0.05,1.38,0.00,17.34,21.14,25.12,14.97,52.42,1024.31,2057.01,2903.05,2874.40,3119.97,599.92,612.06,31.18,0000 0000 0000 0000 000000
2016-01-07 08:08:07,0.05,1.38,0.00,17.35,21.18,25.18,15.10,52.56,1024.42,2057.00,2901.88,2873.77,3119.06,600.67,612.97,31.23,0000 0000 0000 0000 000000
2016-01-07 08:13:09,0.05,1.38,0.00,17.34,21.22,25.24,15.03,52.73,1024.43,2057.00,2900.72,2873.03,3118.14,600.18,612.59,31.28,0000 0000 0000 0000 000000
2016-01-07 08:18:10,0.06,1.38,0.00,17.34,21.26,25.26,14.98,52.43,1024.47,2056.96,2899.62,2872.30,3117.28,599.84,612.14,31.33,0000 0000 0000 0000 000000
2016-01-07 08:23:11,0.01,1.39,0.00,17.35,21.29,25.25,15.03,52.84,1024.59,2056.75,2898.46,2871.78,3116.42,599.88,612.41,31.38,0000 0000 0000 0000 000000
2016-01-07 08:28:12,0.01,1.39,0.00,17.35,21.33,25.29,15.08,52.72,1024.71,2056.24,2897.40,2871.04,3115.65,600.31,612.78,31.43,0000 0000 0000 0000 000000
2016-01-07 08:33:14,0.04,1.39,0.00,17.36,21.35,25.37,15.08,52.86,1024.90,2056.04,2896.32,2870.38,3114.86,600.00,612.55,31.48,0000 0000 0000 0000 000000
2016-01-07 08:38:15,0.04,1.39,0.00,17.37,21.39,25.39,15.09,52.61,1024.92,2056.00,2895.21,2869.81,3114.01,600.50,613.02,31.53,0000 0000 0000 0000 000000
2016-01-07 08:43:16,0.05,1.39,0.00,17.39,21.41,25.40,15.06,52.64,1024.92,2056.00,2894.23,2869.07,3113.15,600.08,612.59,31.58,0000 0000 0000 0000 000000
2016-01-07 08:48:17,0.05,1.40,0.00,17.39,21.44,25.46,15.09,52.73,1024.96,2055.98,2893.13,2868.54,3112.45,600.12,612.65,31.63,0000 0000 0000 0000 000000
2016-01-07 08:53:19,0.03,1.40,0.00,17.38,21.46,25.47,15.07,52.58,1025.21,2055.97,2892.12,2868.00,3111.79,600.24,612.93,31.68,0000 0000 0000 0000 000000
2016-01-07 08:58:20,0.04,1.40,0.00,17.39,21.48,25.45,15.04,52.45,1025.35,2055.86,2891.14,2867.29,3111.01,599.90,612.67,31.73,0000 0000 0000 0000 000000
2016-01-07 09:03:21,-0.00,1.40,0.00,17.40,21.51,25.46,15.10,52.45,1025.37,2055.52,2890.20,2866.91,3110.20,600.15,612.90,31.78,0000 0000 0000 0000 000000
2016-01-07 09:08:23,0.04,1.40,0.00,17.38,21.52,25.46,15.04,52.54,1025.40,2055.18,2889.09,2866.11,3109.56,599.64,612.44,31.83,0000 0000 0000 0000 000000
2016-01-07 09:13:24,0.02,1.40,0.00,17.38,21.54,25.47,15.09,52.41,1025.40,2055.08,2888.08,2865.80,3108.99,600.63,613.45,31.88,0000 0000 0000 0000 000000
2016-01-07 09:18:25,0.05,1.41,0.00,17.40,21.55,25.49,15.07,52.47,1025.40,2055.04,2887.06,2865.06,3108.22,600.43,613.25,31.93,0000 0000 0000 0000 000000
2016-01-07 09:23:27,0.04,1.41,0.00,17.39,21.57,25.51,15.03,52.55,1025.40,2055.01,2886.06,2864.69,3107.66,599.70,612.50,31.98,0000 0000 0000 0000 000000
2016-01-07 09:28:28,0.04,1.41,0.00,17.38,21.58,25.51,15.12,52.48,1025.40,2055.00,2885.08,2864.02,3106.97,600.28,613.12,32.03,0000 0000 0000 0000 000000
2016-01-07 09:33:30,0.05,1.41,0.00,17.38,21.59,25.54,15.08,52.63,1025.43,2055.00,2884.07,2863.66,3106.13,600.25,613.10,32.08,0000 0000 0000 0000 000000
2016-01-07 09:38:31,0.04,1.42,0.00,17.35,21.61,25.52,15.05,52.54,1025.53,2055.00,2883.11,2863.01,3105.57,599.94,612.95,32.13,0000 0000 0000 0000 000000
2016-01-07 09:43:32,0.04,1.42,0.00,17.34,21.62,25.53,15.06,52.42,1025.78,2055.00,2882.18,2862.46,3104.96,599.97,613.04,32.18,0000 0000 0000 0000 000000
2016-01-07 09:48:33,0.03,1.42,0.00,17.34,21.63,25.53,15.14,52.38,1025.88,2054.99,2881.21,2862.01,3104.24,600.54,613.82,32.23,0000 0000 0000 0000 000000
2016-01-07 09:53:34,0.04,1.42,0.00,17.36,21.64,25.57,15.14,52.43,1025.89,2054.99,2880.29,2861.62,3103.83,600.17,613.33,32.29,0000 0000 0000 0000 000000
2016-01-07 09:58:36,0.04,1.42,0.00,17.35,21.64,25.54,15.06,52.54,1025.89,2054.98,2879.32,2861.02,3103.08,599.73,613.06,32.34,0000 0000 0000 0000 000000
2016-01-07 10:03:37,0.05,1.43,0.00,17.35,21.65,25.54,15.12,52.45,1025.89,2054.98,2878.42,2860.55,3102.42,600.26,613.50,32.39,0000 0000 0000 0000 000000
2016-01-07 10:08:38,0.03,1.43,0.00,17.35,21.67,25.51,15.05,52.59,1025.89,2054.97,2877.50,2860.02,3101.94,599.97,613.15,32.44,0000 0000 0000 0000 000000
2016-01-07 10:13:40,0.05,1.43,0.00,17.33,21.67,25.53,15.08,52.54,1025.89,2054.94,2876.42,2859.55,3101.13,600.13,613.38,32.49,0000 0000 0000 0000 000000
2016-01-07 10:18:41,0.03,1.43,0.00,17.33,21.67,25.55,15.11,52.43,1025.92,2054.89,2875.42,2858.99,3100.51,600.27,613.51,32.54,0000 0000 0000 0000 000000
2016-01-07 10:23:43,0.03,1.43,0.00,17.34,21.67,25.54,15.14,52.49,1025.95,2054.81,2874.44,2858.48,3100.00,600.21,613.45,32.59,0000 0000 0000 0000 000000
2016-01-07 10:28:44,0.03,1.44,0.00,17.32,21.67,25.58,15.10,52.44,1026.08,2054.66,2873.44,2858.02,3099.29,600.29,613.46,32.64,0000 0000 0000 0000 000000
2016-01-07 10:33:45,0.05,1.44,0.00,17.30,21.69,25.54,15.10,52.58,1026.27,2054.70,2872.57,2857.71,3098.86,600.26,613.69,32.69,0000 0000 0000 0000 000000
2016-01-07 10:38:47,0.03,1.44,0.00,17.28,21.69,25.53,15.10,52.77,1026.36,2054.62,2871.59,2857.04,3098.09,600.50,614.08,32.74,0000 0000 0000 0000 000000
2016-01-07 10:43:48,0.02,1.44,0.00,17.29,21.69,25.56,15.14,52.84,1026.38,2054.48,2870.57,2856.89,3097.66,600.39,613.94,32.79,0000 0000 0000 0000 000000
2016-01-07 10:48:49,0.05,1.44,0.00,17.28,21.69,25.56,15.08,52.69,1026.38,2054.48,2869.61,2856.17,3097.03,600.28,613.83,32.84,0000 0000 0000 0000 000000
2016-01-07 10:53:50,0.00,1.44,0.00,17.27,21.69,25.56,15.07,52.78,1026.38,2054.18,2868.61,2855.87,3096.45,599.95,613.61,32.89,0000 0000 0000 0000 000000
2016-01-07 10:58:52,0.04,1.45,0.00,17.26,21.69,25.54,15.06,52.60,1026.38,2054.15,2867.66,2855.13,3095.98,600.03,613.72,32.94,0000 0000 0000 0000 000000
2016-01-07 11:03:53,0.03,1.45,0.00,17.26,21.69,25.52,15.13,52.81,1026.40,2054.21,2866.79,2854.99,3095.26,600.25,613.91,32.99,0000 0000 0000 0000 000000
2016-01-07 11:08:54,0.04,1.45,0.00,17.26,21.69,25.53,15.11,52.78,1026.46,2054.14,2865.77,2854.38,3094.91,599.64,613.44,33.04,0000 0000 0000 0000 000000
2016-01-07 11:13:56,0.03,1.45,0.00,17.24,21.69,25.52,15.09,52.46,1026.55,2054.13,2864.86,2854.00,3094.13,599.82,613.61,33.09,0000 0000 0000 0000 000000
2016-01-07 11:18:57,0.03,1.45,0.00,17.22,21.69,25.51,15.14,52.47,1026.58,2054.08,2863.87,2853.68,3093.76,600.59,614.48,33.14,0000 0000 0000 0000 000000
2016-01-07 11:23:58,0.04,1.46,0.00,17.20,21.69,25.51,15.07,52.64,1026.74,2054.11,2862.90,2853.05,3093.06,600.03,614.02,33.20,0000 0000 0000 0000 000000
2016-01-07 11:29:00,0.03,1.46,0.00,17.19,21.69,25.50,15.11,52.69,1026.80,2054.14,2861.98,2852.94,3092.73,600.06,614.14,33.25,0000 0000 0000 0000 000000
2016-01-07 11:34:01,0.05,1.46,0.00,17.19,21.69,25.49,15.14,52.62,1026.79,2054.12,2861.08,2852.18,3092.03,600.27,614.29,33.30,0000 0000 0000 0000 000000
2016-01-07 11:39:02,0.02,1.46,0.00,17.18,21.69,25.52,15.09,52.57,1026.78,2054.12,2860.19,2852.00,3091.65,599.73,613.83,33.35,0000 0000 0000 0000 000000
2016-01-07 11:44:03,0.04,1.46,0.00,17.17,21.69,25.51,15.13,52.78,1026.87,2054.10,2859.14,2851.67,3091.02,600.04,614.20,33.40,0000 0000 0000 0000 000000
2016-01-07 11:49:05,0.05,1.47,0.00,17.16,21.69,25.47,15.12,52.82,1026.87,2054.16,2858.22,2851.03,3090.67,600.04,614.08,33.45,0000 0000 0000 0000 000000
2016-01-07 11:54:06,0.02,1.47,0.00,17.15,21.69,25.50,15.11,52.87,1026.88,2054.23,2857.28,2850.97,3090.03,599.85,614.19,33.50,0000 0000 0000 0000 000000
2016-01-07 11:59:07,0.06,1.47,0.00,17.15,21.69,25.48,15.14,53.04,1027.00,2054.22,2856.32,2850.31,3089.61,600.04,614.29,33.55,0000 0000 0000 0000 000000
2016-01-07 12:04:09,0.01,1.47,0.00,17.14,21.67,25.48,15.13,53.03,1027.33,2054.14,2855.33,2850.00,3089.00,600.24,614.80,33.60,0000 0000 0000 0000 000000
2016-01-07 12:09:11,0.05,1.47,0.00,17.13,21.67,25.42,15.13,52.90,1027.36,2054.17,2854.53,2849.81,3088.47,600.07,614.57,33.65,0000 0000 0000 0000 000000
2016-01-07 12:14:12,0.04,1.48,0.00,17.11,21.67,25.44,15.15,52.84,1027.36,2054.25,2853.56,2849.06,3088.00,600.15,614.70,33.70,0000 0000 0000 0000 000000
2016-01-07 12:19:13,0.03,1.48,0.00,17.10,21.67,25.47,15.12,52.81,1027.36,2054.31,2852.65,2848.97,3087.50,600.13,614.71,33.75,0000 0000 0000 0000 000000
2016-01-07 12:24:14,0.05,1.48,0.00,17.08,21.66,25.43,15.14,52.92,1027.36,2054.42,2851.80,2848.46,3087.00,600.41,615.05,33.80,0000 0000 0000 0000 000000
2016-01-07 12:29:16,0.03,1.48,0.00,17.07,21.65,25.41,15.09,52.96,1027.37,2054.45,2850.84,2848.01,3086.50,600.04,614.67,33.85,0000 0000 0000 0000 000000
2016-01-07 12:34:17,0.03,1.49,0.00,17.07,21.65,25.45,15.12,53.02,1027.43,2054.45,2849.90,2847.81,3086.00,599.93,614.67,33.90,0000 0000 0000 0000 000000
2016-01-07 12:39:18,0.03,1.49,0.00,17.05,21.64,25.41,15.10,52.82,1027.52,2054.23,2849.04,2847.08,3085.36,600.17,614.92,33.95,0000 0000 0000 0000 000000
2016-01-07 12:44:20,0.04,1.49,0.00,17.03,21.64,25.40,15.24,53.08,1027.52,2054.42,2848.32,2847.00,3084.98,600.47,615.31,34.00,0000 0000 0000 0000 000000
2016-01-07 12:49:21,0.05,1.49,0.00,17.05,21.64,25.41,15.08,53.00,1027.49,2054.38,2847.39,2846.51,3084.23,599.42,614.23,34.05,0000 0000 0000 0000 000000
2016-01-07 12:54:23,0.02,1.49,0.00,17.07,21.62,25.40,15.09,52.83,1027.63,2054.34,2846.34,2846.02,3084.00,599.96,614.83,34.10,0000 0000 0000 0000 000000